Time,TemperatureF,DewpointF,PressureIn,WindDirection,WindDirectionDegrees,WindSpeedMPH,WindSpeedGustMPH,Humidity,HourlyPrecipIn,Conditions,Clouds,dailyrainin,SoftwareType,DateUTC
2013-08-14 00:00:00,63.2,53.3,30.07,ENE,76,0.0,0.0,70,0.00,,,0.00,Wunderground v.1.15,2013-08-14 05:00:00,
2013-08-14 00:10:00,62.9,53.4,30.07,ENE,76,0.0,0.0,71,0.00,,,0.00,Wunderground v.1.15,2013-08-14 05:10:00,
2013-08-14 00:20:00,62.7,53.2,30.08,ENE,76,0.0,0.0,71,0.00,,,0.00,Wunderground v.1.15,2013-08-14 05:20:00,
2013-08-14 00:30:00,62.4,53.3,30.09,ENE,76,0.0,0.0,72,0.00,,,0.00,Wunderground v.1.15,2013-08-14 05:30:00,
2013-08-14 00:40:00,62.3,53.2,30.09,ENE,76,0.0,0.0,72,0.00,,,0.00,Wunderground v.1.15,2013-08-14 05:40:00,
2013-08-14 00:50:00,62.0,52.9,30.09,ENE,76,0.0,0.0,72,0.00,,,0.00,Wunderground v.1.15,2013-08-14 05:50:00,
2013-08-14 01:00:00,61.6,52.9,30.09,ENE,76,0.0,0.0,73,0.00,,,0.00,Wunderground v.1.15,2013-08-14 06:00:00,
2013-08-14 01:10:00,61.3,52.6,30.09,ENE,76,0.0,1.0,73,0.00,,,0.00,Wunderground v.1.15,2013-08-14 06:10:00,
2013-08-14 01:20:00,61.0,52.3,30.09,ENE,76,0.0,1.0,73,0.00,,,0.00,Wunderground v.1.15,2013-08-14 06:20:00,
2013-08-14 01:30:00,60.9,52.2,30.09,ENE,76,0.0,1.0,73,0.00,,,0.00,Wunderground v.1.15,2013-08-14 06:30:00,
2013-08-14 01:40:00,60.7,52.0,30.09,ENE,76,0.0,1.0,73,0.00,,,0.00,Wunderground v.1.15,2013-08-14 06:40:00,
2013-08-14 01:50:00,60.5,52.2,30.09,ENE,76,0.0,1.0,74,0.00,,,0.00,Wunderground v.1.15,2013-08-14 06:50:00,
2013-08-14 02:00:00,60.4,52.1,30.09,ENE,76,0.0,1.0,74,0.00,,,0.00,Wunderground v.1.15,2013-08-14 07:00:00,
2013-08-14 02:10:00,60.2,51.9,30.09,ENE,76,0.0,1.0,74,0.00,,,0.00,Wunderground v.1.15,2013-08-14 07:10:00,
2013-08-14 02:20:00,60.1,51.4,30.09,ENE,76,0.0,1.0,73,0.00,,,0.00,Wunderground v.1.15,2013-08-14 07:20:00,
2013-08-14 02:30:00,59.9,51.2,30.09,ENE,76,0.0,1.0,73,0.00,,,0.00,Wunderground v.1.15,2013-08-14 07:30:00,
2013-08-14 02:40:00,59.9,51.2,30.09,ENE,76,0.0,1.0,73,0.00,,,0.00,Wunderground v.1.15,2013-08-14 07:40:00,
2013-08-14 02:50:00,59.8,51.1,30.09,ENE,76,0.0,1.0,73,0.00,,,0.00,Wunderground v.1.15,2013-08-14 07:50:00,
2013-08-14 03:00:00,59.6,50.9,30.09,ENE,76,0.0,1.0,73,0.00,,,0.00,Wunderground v.1.15,2013-08-14 08:00:00,
2013-08-14 03:10:00,59.5,50.8,30.09,ENE,76,0.0,1.0,73,0.00,,,0.00,Wunderground v.1.15,2013-08-14 08:10:00,
2013-08-14 03:20:00,59.3,50.6,30.09,ENE,76,0.0,1.0,73,0.00,,,0.00,Wunderground v.1.15,2013-08-14 08:20:00,
2013-08-14 03:30:00,59.2,50.5,30.09,ENE,76,0.0,1.0,73,0.00,,,0.00,Wunderground v.1.15,2013-08-14 08:30:00,
2013-08-14 03:40:00,59.0,50.7,30.09,ENE,76,0.0,1.0,74,0.00,,,0.00,Wunderground v.1.15,2013-08-14 08:40:00,
2013-08-14 03:50:00,58.9,50.6,30.09,ENE,76,0.0,1.0,74,0.00,,,0.00,Wunderground v.1.15,2013-08-14 08:50:00,
2013-08-14 04:00:00,58.7,50.8,30.10,ENE,76,0.0,1.0,75,0.00,,,0.00,Wunderground v.1.15,2013-08-14 09:00:00,
2013-08-14 04:10:00,58.7,50.8,30.10,ENE,76,0.0,1.0,75,0.00,,,0.00,Wunderground v.1.15,2013-08-14 09:10:00,
2013-08-14 04:20:00,58.6,51.1,30.09,ENE,76,0.0,1.0,76,0.00,,,0.00,Wunderground v.1.15,2013-08-14 09:20:00,
2013-08-14 04:30:00,58.6,51.1,30.10,ENE,76,0.0,1.0,76,0.00,,,0.00,Wunderground v.1.15,2013-08-14 09:30:00,
2013-08-14 04:40:00,58.4,50.9,30.10,ENE,76,0.0,1.0,76,0.00,,,0.00,Wunderground v.1.15,2013-08-14 09:40:00,
2013-08-14 04:50:00,58.3,50.8,30.09,ENE,76,0.0,1.0,76,0.00,,,0.00,Wunderground v.1.15,2013-08-14 09:50:00,
2013-08-14 05:00:00,58.1,50.6,30.09,ENE,76,0.0,1.0,76,0.00,,,0.00,Wunderground v.1.15,2013-08-14 10:00:00,
2013-08-14 05:10:00,58.0,50.5,30.09,ENE,76,0.0,1.0,76,0.00,,,0.00,Wunderground v.1.15,2013-08-14 10:10:00,
2013-08-14 05:20:00,57.8,50.3,30.09,ENE,76,0.0,1.0,76,0.00,,,0.00,Wunderground v.1.15,2013-08-14 10:20:00,
2013-08-14 05:30:00,57.6,50.4,30.10,ENE,76,0.0,1.0,77,0.00,,,0.00,Wunderground v.1.15,2013-08-14 10:30:00,
2013-08-14 05:40:00,57.5,50.7,30.10,ENE,76,0.0,1.0,78,0.00,,,0.00,Wunderground v.1.15,2013-08-14 10:40:00,
2013-08-14 05:50:00,57.2,50.7,30.10,ENE,76,0.0,1.0,79,0.00,,,0.00,Wunderground v.1.15,2013-08-14 10:50:00,
2013-08-14 06:00:00,57.0,50.5,30.09,ENE,76,0.0,1.0,79,0.00,,,0.00,Wunderground v.1.15,2013-08-14 11:00:00,
2013-08-14 06:10:00,56.7,50.3,30.09,ENE,76,0.0,1.0,79,0.00,,,0.00,Wunderground v.1.15,2013-08-14 11:10:00,
2013-08-14 06:20:00,56.6,50.2,30.09,ENE,76,0.0,1.0,79,0.00,,,0.00,Wunderground v.1.15,2013-08-14 11:20:00,
2013-08-14 06:30:00,56.3,50.2,30.09,ENE,76,0.0,1.0,80,0.00,,,0.00,Wunderground v.1.15,2013-08-14 11:30:00,
2013-08-14 06:40:00,56.2,50.1,30.09,ENE,76,0.0,1.0,80,0.00,,,0.00,Wunderground v.1.15,2013-08-14 11:40:00,
2013-08-14 06:50:00,56.0,50.3,30.11,ENE,76,0.0,1.0,81,0.00,,,0.00,Wunderground v.1.15,2013-08-14 11:50:00,
2013-08-14 07:00:00,55.9,50.2,30.11,ENE,76,0.0,1.0,81,0.00,,,0.00,Wunderground v.1.15,2013-08-14 12:00:00,
2013-08-14 07:10:00,56.0,50.6,30.11,ENE,76,0.0,1.0,82,0.00,,,0.00,Wunderground v.1.15,2013-08-14 12:10:00,
2013-08-14 07:20:00,56.3,50.9,30.11,ENE,76,0.0,1.0,82,0.00,,,0.00,Wunderground v.1.15,2013-08-14 12:20:00,
2013-08-14 07:30:00,56.6,51.2,30.11,ENE,76,0.0,1.0,82,0.00,,,0.00,Wunderground v.1.15,2013-08-14 12:30:00,
2013-08-14 07:40:00,56.9,51.5,30.11,ENE,76,0.0,1.0,82,0.00,,,0.00,Wunderground v.1.15,2013-08-14 12:40:00,
2013-08-14 07:50:00,57.2,51.4,30.12,ENE,76,0.0,1.0,81,0.00,,,0.00,Wunderground v.1.15,2013-08-14 12:50:00,
2013-08-14 08:00:00,57.6,51.8,30.12,ENE,76,0.0,1.0,81,0.00,,,0.00,Wunderground v.1.15,2013-08-14 13:00:00,
2013-08-14 08:10:00,58.0,51.9,30.12,ENE,76,0.0,1.0,80,0.00,,,0.00,Wunderground v.1.15,2013-08-14 13:10:00,
2013-08-14 08:20:00,59.0,52.1,30.13,ENE,76,0.0,1.0,78,0.00,,,0.00,Wunderground v.1.15,2013-08-14 13:20:00,
2013-08-14 08:30:00,60.9,52.6,30.12,ENE,76,0.0,1.0,74,0.00,,,0.00,Wunderground v.1.15,2013-08-14 13:30:00,
2013-08-14 08:40:00,61.6,52.5,30.12,ENE,78,0.0,1.0,72,0.00,,,0.00,Wunderground v.1.15,2013-08-14 13:40:00,
2013-08-14 08:50:00,62.1,52.6,30.13,ENE,78,0.0,1.0,71,0.00,,,0.00,Wunderground v.1.15,2013-08-14 13:50:00,
2013-08-14 09:00:00,62.9,53.0,30.13,East,79,0.0,1.0,70,0.00,,,0.00,Wunderground v.1.15,2013-08-14 14:00:00,
2013-08-14 09:10:00,63.4,53.8,30.13,East,80,0.0,1.0,71,0.00,,,0.00,Wunderground v.1.15,2013-08-14 14:10:00,
2013-08-14 09:20:00,64.2,53.8,30.13,East,92,0.0,1.0,69,0.00,,,0.00,Wunderground v.1.15,2013-08-14 14:20:00,
2013-08-14 09:30:00,65.5,54.2,30.13,East,92,0.0,1.0,67,0.00,,,0.00,Wunderground v.1.15,2013-08-14 14:30:00,
2013-08-14 09:40:00,66.0,53.5,30.13,ESE,104,0.0,1.0,64,0.00,,,0.00,Wunderground v.1.15,2013-08-14 14:40:00,
2013-08-14 09:50:00,66.6,54.5,30.13,SE,140,0.0,1.0,65,0.00,,,0.00,Wunderground v.1.15,2013-08-14 14:50:00,
2013-08-14 10:00:00,67.3,54.7,30.13,SE,141,0.0,1.0,64,0.00,,,0.00,Wunderground v.1.15,2013-08-14 15:00:00,
2013-08-14 10:10:00,67.4,53.5,30.13,SW,232,0.0,1.0,61,0.00,,,0.00,Wunderground v.1.15,2013-08-14 15:10:00,
2013-08-14 10:20:00,68.1,52.8,30.13,SW,221,0.0,1.0,58,0.00,,,0.00,Wunderground v.1.15,2013-08-14 15:20:00,
2013-08-14 10:30:00,68.8,52.5,30.14,ENE,78,0.0,1.0,56,0.00,,,0.00,Wunderground v.1.15,2013-08-14 15:30:00,
2013-08-14 10:40:00,68.9,52.6,30.14,SSW,209,0.0,1.0,56,0.00,,,0.00,Wunderground v.1.15,2013-08-14 15:40:00,
2013-08-14 10:50:00,69.8,52.9,30.14,SSW,208,0.0,1.0,55,0.00,,,0.00,Wunderground v.1.15,2013-08-14 15:50:00,
2013-08-14 11:00:00,70.6,52.1,30.14,South,181,0.0,1.0,52,0.00,,,0.00,Wunderground v.1.15,2013-08-14 16:00:00,
2013-08-14 11:10:00,69.9,50.9,30.14,South,180,0.0,1.0,51,0.00,,,0.00,Wunderground v.1.15,2013-08-14 16:10:00,
2013-08-14 11:20:00,70.9,51.3,30.13,WSW,252,0.0,1.0,50,0.00,,,0.00,Wunderground v.1.15,2013-08-14 16:20:00,
2013-08-14 11:30:00,70.9,51.9,30.13,WSW,251,0.0,1.0,51,0.00,,,0.00,Wunderground v.1.15,2013-08-14 16:30:00,
2013-08-14 11:40:00,70.4,50.3,30.13,WSW,251,0.0,1.0,49,0.00,,,0.00,Wunderground v.1.15,2013-08-14 16:40:00,
2013-08-14 12:10:00,72.1,48.4,30.12,SSE,165,0.0,1.0,43,0.00,,,0.00,Wunderground v.1.15,2013-08-14 17:10:00,
2013-08-14 12:20:00,71.5,49.6,30.12,East,82,0.0,1.0,46,0.00,,,0.00,Wunderground v.1.15,2013-08-14 17:20:00,
2013-08-14 12:30:00,71.3,48.3,30.11,East,83,0.0,1.0,44,0.00,,,0.00,Wunderground v.1.15,2013-08-14 17:30:00,
2013-08-14 12:40:00,71.3,48.9,30.11,East,83,0.0,1.0,45,0.00,,,0.00,Wunderground v.1.15,2013-08-14 17:40:00,
2013-08-14 12:50:00,72.0,48.3,30.11,SSW,205,0.0,1.0,43,0.00,,,0.00,Wunderground v.1.15,2013-08-14 17:50:00,
2013-08-14 13:00:00,72.5,53.3,30.11,SE,144,0.0,1.0,51,0.00,,,0.00,Wunderground v.1.15,2013-08-14 18:00:00,
2013-08-14 13:10:00,72.5,50.5,30.11,WNW,286,0.0,1.0,46,0.00,,,0.00,Wunderground v.1.15,2013-08-14 18:10:00,
2013-08-14 13:20:00,71.6,47.9,30.10,SSW,213,0.0,1.0,43,0.00,,,0.00,Wunderground v.1.15,2013-08-14 18:20:00,
2013-08-14 13:30:00,72.0,50.7,30.10,SSW,213,0.0,1.0,47,0.00,,,0.00,Wunderground v.1.15,2013-08-14 18:30:00,
2013-08-14 13:40:00,73.2,50.0,30.10,SSW,213,0.0,1.0,44,0.00,,,0.00,Wunderground v.1.15,2013-08-14 18:40:00,
2013-08-14 13:50:00,73.3,51.3,30.09,SSW,210,0.0,1.0,46,0.00,,,0.00,Wunderground v.1.15,2013-08-14 18:50:00,
2013-08-14 14:00:00,71.3,49.4,30.09,SSW,209,0.0,1.0,46,0.00,,,0.00,Wunderground v.1.15,2013-08-14 19:00:00,
2013-08-14 14:20:00,71.1,48.7,30.09,SSW,209,0.0,1.0,45,0.00,,,0.00,Wunderground v.1.15,2013-08-14 19:20:00,
2013-08-14 14:40:00,72.8,49.6,30.09,SSW,209,0.0,1.0,44,0.00,,,0.00,Wunderground v.1.15,2013-08-14 19:40:00,
2013-08-14 14:50:00,74.0,50.1,30.09,WSW,238,0.0,1.0,43,0.00,,,0.00,Wunderground v.1.15,2013-08-14 19:50:00,
2013-08-14 15:00:00,72.7,48.9,30.08,WSW,239,0.0,1.0,43,0.00,,,0.00,Wunderground v.1.15,2013-08-14 20:00:00,
2013-08-14 15:10:00,72.1,49.6,30.08,East,85,0.0,1.0,45,0.00,,,0.00,Wunderground v.1.15,2013-08-14 20:10:00,
2013-08-14 15:30:00,72.3,49.2,30.07,SSE,167,0.0,1.0,44,0.00,,,0.00,Wunderground v.1.15,2013-08-14 20:30:00,
2013-08-14 15:40:00,72.7,48.3,30.07,SE,145,0.0,1.0,42,0.00,,,0.00,Wunderground v.1.15,2013-08-14 20:40:00,
2013-08-14 15:50:00,74.4,50.4,30.07,SSE,153,0.0,1.0,43,0.00,,,0.00,Wunderground v.1.15,2013-08-14 20:50:00,
2013-08-14 16:00:00,74.2,47.6,30.06,East,94,0.0,1.0,39,0.00,,,0.00,Wunderground v.1.15,2013-08-14 21:00:00,
2013-08-14 16:10:00,73.5,49.0,30.06,SE,136,0.0,1.0,42,0.00,,,0.00,Wunderground v.1.15,2013-08-14 21:10:00,
2013-08-14 16:20:00,72.7,47.6,30.06,SSE,163,0.0,1.0,41,0.00,,,0.00,Wunderground v.1.15,2013-08-14 21:20:00,
2013-08-14 16:30:00,72.7,49.5,30.06,SSE,159,0.0,1.0,44,0.00,,,0.00,Wunderground v.1.15,2013-08-14 21:30:00,
2013-08-14 16:40:00,72.5,49.9,30.06,SSE,160,0.0,1.0,45,0.00,,,0.00,Wunderground v.1.15,2013-08-14 21:40:00,
2013-08-14 16:50:00,72.3,52.1,30.06,SSE,160,0.0,1.0,49,0.00,,,0.00,Wunderground v.1.15,2013-08-14 21:50:00,
2013-08-14 17:00:00,72.1,47.7,30.05,SSE,159,0.0,1.0,42,0.00,,,0.00,Wunderground v.1.15,2013-08-14 22:00:00,
2013-08-14 17:10:00,72.1,47.1,30.05,SSE,159,0.0,1.0,41,0.00,,,0.00,Wunderground v.1.15,2013-08-14 22:10:00,
2013-08-14 17:20:00,71.6,49.1,30.05,SSE,159,0.0,1.0,45,0.00,,,0.00,Wunderground v.1.15,2013-08-14 22:20:00,
2013-08-14 17:40:00,71.8,48.7,30.05,SSE,159,0.0,1.0,44,0.00,,,0.00,Wunderground v.1.15,2013-08-14 22:40:00,
2013-08-14 17:50:00,71.5,48.4,30.05,SSE,159,0.0,1.0,44,0.00,,,0.00,Wunderground v.1.15,2013-08-14 22:50:00,
2013-08-14 18:00:00,71.3,50.0,30.05,SSE,159,0.0,1.0,47,0.00,,,0.00,Wunderground v.1.15,2013-08-14 23:00:00,
2013-08-14 18:10:00,71.1,48.7,30.05,SSE,159,0.0,1.0,45,0.00,,,0.00,Wunderground v.1.15,2013-08-14 23:10:00,
2013-08-14 18:20:00,71.3,48.9,30.04,SSE,159,0.0,1.0,45,0.00,,,0.00,Wunderground v.1.15,2013-08-14 23:20:00,
2013-08-14 18:30:00,71.3,48.9,30.03,SSE,159,0.0,1.0,45,0.00,,,0.00,Wunderground v.1.15,2013-08-14 23:30:00,
2013-08-14 18:40:00,71.1,48.7,30.03,SSE,159,0.0,1.0,45,0.00,,,0.00,Wunderground v.1.15,2013-08-14 23:40:00,
2013-08-14 18:50:00,71.1,49.3,30.03,SSE,159,0.0,1.0,46,0.00,,,0.00,Wunderground v.1.15,2013-08-14 23:50:00,
2013-08-14 19:00:00,71.1,49.3,30.03,SSE,159,0.0,1.0,46,0.00,,,0.00,Wunderground v.1.15,2013-08-15 00:00:00,
2013-08-14 19:10:00,71.1,49.8,30.03,SSE,153,0.0,1.0,47,0.00,,,0.00,Wunderground v.1.15,2013-08-15 00:10:00,
2013-08-14 19:20:00,71.1,49.8,30.03,SSE,152,0.0,1.0,47,0.00,,,0.00,Wunderground v.1.15,2013-08-15 00:20:00,
2013-08-14 19:30:00,70.9,49.7,30.03,SSE,152,0.0,1.0,47,0.00,,,0.00,Wunderground v.1.15,2013-08-15 00:30:00,
2013-08-14 19:40:00,70.8,49.6,30.03,SSE,152,0.0,1.0,47,0.00,,,0.00,Wunderground v.1.15,2013-08-15 00:40:00,
2013-08-14 19:50:00,70.6,49.4,30.03,SSE,152,0.0,1.0,47,0.00,,,0.00,Wunderground v.1.15,2013-08-15 00:50:00,
2013-08-14 20:00:00,70.4,49.8,30.03,SSE,152,0.0,1.0,48,0.00,,,0.00,Wunderground v.1.15,2013-08-15 01:00:00,
2013-08-14 20:10:00,70.3,50.2,30.03,SSE,152,0.0,1.0,49,0.00,,,0.00,Wunderground v.1.15,2013-08-15 01:10:00,
2013-08-14 20:20:00,69.9,49.9,30.03,SSE,152,0.0,1.0,49,0.00,,,0.00,Wunderground v.1.15,2013-08-15 01:20:00,
2013-08-14 20:30:00,69.6,50.7,30.03,SSE,152,0.0,1.0,51,0.00,,,0.00,Wunderground v.1.15,2013-08-15 01:30:00,
2013-08-14 20:40:00,69.4,51.5,30.03,SSE,152,0.0,1.0,53,0.00,,,0.00,Wunderground v.1.15,2013-08-15 01:40:00,
2013-08-14 20:50:00,69.1,52.2,30.03,SSE,152,0.0,1.0,55,0.00,,,0.00,Wunderground v.1.15,2013-08-15 01:50:00,
2013-08-14 21:00:00,68.9,52.6,30.03,SSE,151,0.0,1.0,56,0.00,,,0.00,Wunderground v.1.15,2013-08-15 02:00:00,
2013-08-14 21:10:00,68.4,53.0,30.03,SSE,151,0.0,1.0,58,0.00,,,0.00,Wunderground v.1.15,2013-08-15 02:10:00,
2013-08-14 21:20:00,68.3,53.4,30.03,SSE,151,0.0,1.0,59,0.00,,,0.00,Wunderground v.1.15,2013-08-15 02:20:00,
2013-08-14 21:30:00,67.8,52.9,30.04,SSE,151,0.0,1.0,59,0.00,,,0.00,Wunderground v.1.15,2013-08-15 02:30:00,
2013-08-14 21:40:00,67.4,53.0,30.04,SSE,151,0.0,1.0,60,0.00,,,0.00,Wunderground v.1.15,2013-08-15 02:40:00,
2013-08-14 21:50:00,67.1,52.7,30.04,SSE,151,0.0,1.0,60,0.00,,,0.00,Wunderground v.1.15,2013-08-15 02:50:00,
2013-08-14 22:00:00,66.8,52.5,30.05,SSE,151,0.0,1.0,60,0.00,,,0.00,Wunderground v.1.15,2013-08-15 03:00:00,
2013-08-14 22:10:00,66.4,52.1,30.05,SSE,151,0.0,1.0,60,0.00,,,0.00,Wunderground v.1.15,2013-08-15 03:10:00,
2013-08-14 22:20:00,66.1,52.3,30.05,SSE,151,0.0,1.0,61,0.00,,,0.00,Wunderground v.1.15,2013-08-15 03:20:00,
2013-08-14 22:30:00,66.0,52.2,30.05,SSE,151,0.0,1.0,61,0.00,,,0.00,Wunderground v.1.15,2013-08-15 03:30:00,
2013-08-14 22:40:00,65.8,52.0,30.05,SSE,151,0.0,1.0,61,0.00,,,0.00,Wunderground v.1.15,2013-08-15 03:40:00,
2013-08-14 22:50:00,65.6,51.8,30.05,SSE,151,0.0,1.0,61,0.00,,,0.00,Wunderground v.1.15,2013-08-15 03:50:00,
2013-08-14 23:00:00,65.6,51.8,30.05,SSE,151,0.0,1.0,61,0.00,,,0.00,Wunderground v.1.15,2013-08-15 04:00:00,
2013-08-14 23:10:00,65.5,52.1,30.05,SSE,151,0.0,1.0,62,0.00,,,0.00,Wunderground v.1.15,2013-08-15 04:10:00,
2013-08-14 23:20:00,65.5,52.1,30.05,SSE,152,0.0,1.0,62,0.00,,,0.00,Wunderground v.1.15,2013-08-15 04:20:00,
2013-08-14 23:30:00,65.3,51.9,30.05,SSE,152,0.0,1.0,62,0.00,,,0.00,Wunderground v.1.15,2013-08-15 04:30:00,
2013-08-14 23:40:00,65.2,52.3,30.05,SSE,153,0.0,1.0,63,0.00,,,0.00,Wunderground v.1.15,2013-08-15 04:40:00,
2013-08-14 23:50:00,64.8,51.9,30.05,SSE,155,0.0,1.0,63,0.00,,,0.00,Wunderground v.1.15,2013-08-15 04:50:00,